Regional Weather Roundup
Issued by NWS

Home | Current Version | Previous Version | Graphics & Text | Print | Product List | Glossary Off
Versions: 1 2 3 4 5 6 7 8 9 10 11 12 13 14 15 16 17 18 19 20 21 22 23 24 25 26 27 28 29 30 31 32 33 34 35 36 37 38 39 40 41 42 43 44 45 46 47 48 49 50

000
ASUS43 KDMX 171307
RWRIA

WEATHER ROUNDUP FOR IOWA
NATIONAL WEATHER SERVICE DES MOINES IA
800 AM CDT FRI APR 17 2015

NOTE: "FAIR" INDICATES FEW OR NO CLOUDS BELOW 12,000 FEET WITH NO
SIGNIFICANT WEATHER AND/OR OBSTRUCTIONS TO VISIBILITY.

* - THESE STATIONS ARE NOT NWS STATIONS...THUS NOT UNDER NWS
QUALITY CONTROL.  THEY ALSO DO NOT REPORT WEATHER SUCH
AS PRECIPITATION OR FOG.

IAZ001>003-012>014-020>022-031>034-043>046-171400-
   NORTHWEST IOWA

CITY           SKY/WX    TMP DP  RH WIND       PRES   REMARKS
CARROLL *      SUNNY     52  50  93 W6        30.12R
CHEROKEE *     MOSUNNY   48  48 100 CALM      30.13S FOG
DENISON *      MOSUNNY   54  54 100 CALM      30.11R FOG
LE MARS *      SUNNY     50  46  87 CALM      30.14S
ORANGE CITY *  SUNNY     50  43  76 E6        30.13R
SHELDON *      SUNNY     50  45  81 NE9       30.11F
SIOUX CITY     PTSUNNY   53  47  79 NW5       30.12S
SPENCER        MOSUNNY   52  45  77 N7        30.13F
STORM LAKE *   SUNNY     54  48  82 N8        30.13S
$$

IAZ055>058-069>071-079>083-090>094-171400-
   SOUTHWEST IOWA

CITY           SKY/WX    TMP DP  RH WIND       PRES   REMARKS
ATLANTIC *     SUNNY     52  52 100 CALM      30.12R
AUDUBON *      MOSUNNY   48  46  93 CALM      30.14R
CLARINDA *     PTSUNNY   54  52  94 N5        30.12R
COUNCIL BLFS * SUNNY     57  55  94 N8        30.11R
CRESTON *      SUNNY     57  55  94 E6        30.11S
HARLAN  *      FOG       52  52 100 N5        30.15R VSB 3/4
LAMONI         MOSUNNY   56  52  86 NE3       30.11R
RED OAK *      SUNNY     54  54 100 NE6       30.11R
SHENANDOAH *   MOSUNNY   54  52  94 NE7       30.11R
$$

IAZ047>049-059>061-072>074-084-171400-
   CENTRAL IOWA

CITY           SKY/WX    TMP DP  RH WIND       PRES   REMARKS
AMES           MOSUNNY   54  49  83 CALM      30.11R
ANKENY *       SUNNY     54  52  94 CALM      30.12R
CHARITON *     SUNNY     59  54  82 CALM      30.11S
DES MOINES     MOSUNNY   56  50  80 S3        30.12R
GRINNELL*      MOSUNNY   57  52  82 CALM      30.12R
KNOXVILLE *    MOSUNNY   55  52  88 CALM      30.10S
MARSHALLTOWN   MOSUNNY   53  49  86 CALM      30.10R
PELLA *        MOSUNNY   57  55  94 CALM      30.13R
PERRY *          N/A     54  50  87 CALM      30.11R
$$

IAZ004>006-015-016-023>025-035-036-171400-
   NORTH CENTRAL IOWA

CITY           SKY/WX    TMP DP  RH WIND       PRES   REMARKS
ALGONA *       SUNNY     52  46  82 N5        30.13S
CLARION *      SUNNY     52  50  93 N7        30.11F
ESTHERVILLE    MOSUNNY   50  42  74 N10       30.12F
FORT DODGE *   SUNNY     52  46  82 CALM      30.13R
MASON CITY     SUNNY     52  48  86 NW3       30.13R FOG
FOREST CITY *  SUNNY     48  46  93 CALM      30.12S FOG
IOWA FALLS *     N/A     54  48  82 CALM      30.12S
$$

IAZ007>011-017>019-026>030-037>042-050>054-066-171400-
   NORTHEAST IOWA

CITY           SKY/WX    TMP DP  RH WIND       PRES   REMARKS
CEDAR RAPIDS   MOSUNNY   55  51  86 CALM      30.11R
CHARLES CITY * SUNNY     55  50  82 CALM      30.12S
CLINTON *      MOSUNNY   55  46  71 S3        30.14R
DECORAH *      SUNNY     54  46  76 CALM      30.11R
DUBUQUE        SUNNY     55  48  77 CALM      30.11R
MONTICELLO *   SUNNY     52  52 100 CALM      30.11R
OELWEIN *      SUNNY     55  48  76 CALM      30.12R
WATERLOO       MOSUNNY   54  48  80 NW3       30.11R
$$

IAZ064-065-067-068-078-171400-
   EAST CENTRAL IOWA

CITY           SKY/WX    TMP DP  RH WIND       PRES   REMARKS
DAVENPORT      SUNNY     57  46  66 CALM      30.12R
IOWA CITY      MOSUNNY   54  49  83 CALM      30.13R
MT. PLEASANT * CLOUDY    55  50  82 CALM      30.12S
MUSCATINE *    CLOUDY    55  50  82 CALM      30.12R
QUAD CITIES    SUNNY     55  47  74 NE6       30.12R
$$

IAZ062-063-075>077-085>089-095>099-171400-
   SOUTHEAST IOWA

CITY           SKY/WX    TMP DP  RH WIND       PRES   REMARKS
BURLINGTON     CLOUDY    58  52  80 N3        30.11R
FAIRFIELD *    CLOUDY    59  52  77 N3        30.11S
FORT MADISON * PTSUNNY   55  52  88 CALM      30.12R
KEOKUK *       CLOUDY    59  55  88 CALM      30.10R
OSKALOOSA *    CLOUDY    54  50  87 CALM      30.12S
CENTERVILLE *  MOSUNNY   55  55 100 N3        30.12S
OTTUMWA        PTSUNNY   59  53  80 E5        30.11S
WASHINGTON *   PTSUNNY   57  57 100 CALM      30.12R
$$

ABBREVIATIONS USED IN REMARKS
   TC - TEMPERATURES IN CELSIUS
  WCI - WIND CHILL INDEX
   HX - HEAT INDEX
  VSB - VISIBILITY
$$




USA.gov is the U.S. government's official web portal to all federal, state and local government web resources and services.